Other Public Products
Issued by NWS Grand Forks, ND

Home | Current Version | Previous Version | Graphics & Text | Print | Product List | Glossary On
Versions: 1 2 3 4 5 6 7 8 9 10 11 12 13 14 15 16 17 18 19 20 21 22 23 24 25 26 27 28 29 30 31 32 33 34 35 36 37 38 39 40 41 42 43 44 45 46 47 48 49 50
000
FPUS83 KFGF 171531
OPUFGF
PRAIRIE TO PINES WEATHER ROUNDUP
NATIONAL WEATHER SERVICE EASTERN NORTH DAKOTA/GRAND FORKS ND
900 AM CST WED DEC 17 2014

 **SATELLITE DATA USED TO AUGMENT SKY COVER AT AUTOMATED STATIONS**
 *****  WEATHER ACROSS EASTERN NORTH DAKOTA  *****

CITY           SKY/WX    TMP DP  RH WIND       PRES   REMARKS
GRAND FORKS    MOCLDY     1  -2  87 CALM      30.38R
GRAND FORKS AF MOCLDY     2   1  96 NW5       30.37S WCI  -8
GRAND CITY NWS NOT AVBL
BUXTON           N/A      4   1  89 NW3         N/A
DEVILS LAKE    PTCLDY     1  -8  66 CALM      30.30S
FARGO          PTCLDY     4  -1  80 W7        30.37S WCI  -8
WAHPETON ARPT  PTSUNNY    5   1  85 NW3       30.38R
$$

 *****  WEATHER ACROSS CENTRAL AND WESTERN NORTH DAKOTA  *****

CITY           SKY/WX    TMP DP  RH WIND       PRES   REMARKS
JAMESTOWN      PTCLDY     0  -5  79 NE5       30.31F WCI -10
BISMARCK       LGT SNOW  14  10  84 S6        30.29R FOG     WCI   5
MINOT          CLOUDY    11   7  84 SE9       30.25F FOG     WCI  -2
MINOT AFB      CLOUDY    10  10 100 SE8       30.25F WCI  -1
GARRISON         N/A     14  10  84 SE10      30.23S WCI   1
WILLISTON      CLOUDY    18  12  77 S12G21    30.17S WCI   5
DICKINSON      LGT SNOW  16  11  80 S10       30.13S WCI   4
HETTINGER      CLOUDY    15  13  91 SE14      30.14S FOG     WCI   0
$$

 *****  OTHER OBSERVATIONS NORTHEAST NORTH DAKOTA  *****

CITY           SKY/WX    TMP DP  RH WIND       PRES   REMARKS
WALHALLA         N/A      0  -2  92 CALM      30.38S
LANGDON        FAIR      -2  -6  84 CALM      30.30S
CAVALIER       FAIR       3   0  85 CALM      30.38S
GRAFTON        NOT AVBL
CANDO          FOG       -2  -4  92 CALM      30.33S VSB 1/2
FORT TOTTEN      N/A      0  -5  80 CALM      29.95
ROLLA          FAIR       0  -4  85 SW3       30.29S
RUGBY          FAIR       1   0  92 SE5       30.31S WCI  -8
 ***** THE ABOVE OBSERVATIONS ARE NON NWS ARE NOT QUALITY
        CONTROLLED AND MAY MIS-REPORT RAIN FOR SNOW...
$$

 *****  OTHER OBSERVATIONS SOUTHEAST NORTH DAKOTA *****

CITY           SKY/WX    TMP DP  RH WIND       PRES   REMARKS
COOPERSTOWN    NOT AVBL
VALLEY CITY    FAIR       1   1 100 CALM      30.34S
OAKES            N/A      5   3  92 W3        30.35R
GWINNER        SUNNY      9   5  85 MISG      30.36S
SHEYENNE NWR     N/A      2  -3  79 W2        29.95S
BUFFALO        NOT AVBL
WYNDMERE         N/A      3   1  92 W6          N/A  WCI  -8
 ***** THE ABOVE OBSERVATIONS ARE NON NWS ARE NOT QUALITY
       CONTROLLED AND MAY MIS-REPORT RAIN FOR SNOW...
$$

  *****  WEATHER ACROSS NORTHERN MINNESOTA  *****

CITY           SKY/WX    TMP DP  RH WIND       PRES   REMARKS
FLAG ISLAND    MOCLDY     7   3  85 N6        30.34R WCI  -3
WARROAD        PTCLDY     3   0  85 CALM      30.34S
ROSEAU         PTCLDY     3  -2  78 N3        30.35S
HALLOCK        PTCLDY     1  -2  85 NW3       30.38S
THF RVR FALLS  PTCLDY     3   1  92 CALM      30.33S
HALSTAD          N/A      4   0  81 NW6         N/A  WCI  -6
FOSSTON        CLOUDY     1   0  92 CALM      30.31S
BAUDETTE       MOCLDY    10   6  84 CALM      30.31R
WASKISH        CLOUDY    12  10  92 CALM      30.31R
CROOKSTON      PTCLDY     3   0  85 NW5       30.38S WCI  -6
$$
  *****  WEATHER ACROSS CENTRAL AND WEST MINNESOTA  *****

CITY           SKY/WX    TMP DP  RH WIND       PRES   REMARKS
BEMIDJI        LGT SNOW  10   7  87 N5        30.28S WCI   1
PARK RAPIDS    PTCLDY     5   2  87 NW3       30.27R
WADENA         MOCLDY     5   1  85 NW3       30.28S
DETROIT LAKES  PTCLDY     5   3  92 NW5       30.31R WCI  -4
MOORHEAD       PTCLDY     7   5  92 W5        30.38R WCI  -2
FERGUS FALLS   PTCLDY     1  -2  85 NW5       30.39S WCI  -8
ELBOW LAKE     FAIR       3   1  88 NW9       30.34R WCI -11
MORRIS MN      PTCLDY     7   3  85 NW7       30.33S WCI  -5
STAPLES        MOCLDY     9   5  85 NW7       30.28R WCI  -3
WHEATON        PTCLDY     3   1  92 W3        30.39S
$$
  *****  WEATHER ELSEWHERE ACROSS MINNESOTA  *****

CITY           SKY/WX    TMP DP  RH WIND       PRES   REMARKS
DULUTH         MOCLDY    11   5  77 N9        30.21R WCI  -2
INTRNTL FALLS  PTCLDY    12   6  77 N5        30.30R WCI   4
ELY            LGT SNOW  10   7  85 CALM      30.23S
CLOQUET        PTCLDY    10   7  85 NW9       30.23S WCI  -2
BRAINERD       MOCLDY     9   6  88 CALM      30.28R
HIBBING        PTCLDY    11   5  77 N7        30.24S WCI   0
ALEXANDRIA     MOCLDY     4   1  88 W10       30.30R WCI -11
SAINT CLOUD    PTCLDY    11   5  77 W5        30.31R WCI   3
MINNEAPOLIS    PTCLDY    11   6  81 W9        30.32S WCI  -2
$$

  *****  WEATHER ACROSS SOUTH DAKOTA  *****

CITY           SKY/WX    TMP DP  RH WIND       PRES   REMARKS
SIOUX FALLS    PTCLDY     4   2  91 CALM      30.33R
BROOKINGS      NOT AVBL
WATERTOWN      MOCLDY     4   1  88 NW3       30.29S
HURON          CLOUDY     0  -3  87 W3        30.35R FOG
SISSETON         N/A      1  -3  83 CALM      30.36R
ABERDEEN       CLEAR      5   0  79 NE5       30.34F WCI  -4
MITCHELL       MOCLDY     2  -1  88 W3        30.36R
PIERRE         CLOUDY    16  14  92 SE12      30.25S WCI   3
MOBRIDGE       CLOUDY    16  11  80 SE13      30.24S WCI   2
RAPID CITY     CLOUDY    19  17  92 SE8       30.04F WCI   9
$$

  *****  SOME WEATHER IN NEARBY STATES *****

CITY           SKY/WX    TMP DP  RH WIND       PRES   REMARKS
GLASGOW MT     CLOUDY    18  15  88 E14       30.06S WCI   4
GREAT FALLS MT CLOUDY    27  25  92 SW3       29.88F
CHEYENNE WY    CLOUDY    31  22  69 W9        29.94S WCI  23
SCOTTSBLUFF NE CLOUDY    14  10  84 CALM      30.02R
OMAHA NE       PTSUNNY   18  12  77 CALM      30.37S
DES MOINES IA  MOSUNNY   17  10  74 NW6       30.35S WCI   9
DAVENPORT IA   CLOUDY    21  15  78 W13       30.31R WCI   9
CHICAGO IL     CLOUDY    25  17  72 NW10      30.22S WCI  15
EAU CLAIRE WI  CLOUDY    17  12  80 W8        30.26R WCI   7
LA CROSSE WI   LGT SNOW  21  13  71 NW13      30.29R WCI   9
$$

  *****  SOME NATIONAL WEATHER *****

CITY           SKY/WX    TMP DP  RH WIND       PRES   REMARKS
LA GUARDIA NY  MOSUNNY   48  40  73 NW14G21   29.86R
RALEIGH NC     MOSUNNY   51  38  60 NW7       30.12R
ATLANTA GA     PTSUNNY   45  37  73 NW14G20   30.22R
NEW ORLEANS LA PTSUNNY   52  38  58 E9        30.30R
OKLAHOMA CITY  LGT RAIN  37  31  78 E14       30.24F
ALBUQUERQUE NM FOG       33  32  96 NW5       30.04S VSB 1/4
SALT LAKE CITY MOCLDY    31  28  89 CALM      30.00R
LOS ANGELES CA PTCLDY    52  49  89 VRB5      29.99R
BOISE ID       MOCLDY    28  26  92 S3        29.98R
SEATTLE WA     CLOUDY    45  38  76 E5        29.81S
$$

*** WEATHER ACROSS MANITOBA...SASKATCHEWAN AND ONTARIO ***
                ***ONTARIO***

CITY           SKY/WX    TMP DP  RH WIND       PRES   REMARKS
GERALDTON      MOCLDY     1  -6  71 N8        30.23R WCI -12
THUNDER BAY    MOCLDY    16   9  73 N6        30.27  WCI   7
SIOUX LOOKOUT  PTCLDY    -2  -6  84 N3        30.33S
TORONTO        LGT RAIN  36  32  87 W17       29.86R
BIG TROUT LK   CLEAR    -11 -15  84 W5        30.34F WCI -23
PICKLE LAKE    LGT SNOW  -6  -9  84 VRB2      30.35R FOG
DRYDEN         CLEAR      3   0  85 NE8       30.32R WCI -10
KENORA         PTCLDY     3   0  85 NE6       30.32R WCI  -8
$$
                *** MANITOBA***

CITY           SKY/WX    TMP DP  RH WIND       PRES   REMARKS
BRANDON        FOG       -6  -9  84 E2        30.33R VSB 1/8
DAUPHIN        CLEAR     -2  -6  84 W8        30.32S WCI -17
ISLAND LAKE    FLURRIES   5   1  85 SW5       30.34S WCI  -4
PILOT MOUND      N/A     -8 -11  84 SE2         N/A
THE PAS        FLURRIES  16  12  86 SW6       30.22F WCI   7
THOMPSON       FLURRIES  16  14  93 SW12      30.20  WCI   3
WINNIPEG       PTCLDY    -4  -9  77 N2        30.40S
LYNN LAKE      FLURRIES  14  12  92 SW9       30.09F WCI   2
CHURCHILL      CLEAR      5   1  85 SW10      30.10F WCI -10
GILLAM         CLOUDY    14  12  92 SW13G18   30.19S WCI   0
$$
                ***SASKATCHEWAN***

CITY           SKY/WX    TMP DP  RH WIND       PRES   REMARKS
ESTEVAN        FLURRIES  16  12  86 S13       30.18F WCI   2
KINDERSLEY     MOCLDY    16  14  93 SE15      29.95F WCI   1
LLOYDMINSTER   CLOUDY    18  16  93 SE12      29.94F FOG     WCI   5
PRINCE ALBERT  FLURRIES  18  16  93 S12       30.12S WCI   5
REGINA         CLOUDY    18  14  86 S16       30.13S WCI   3


USA.gov is the U.S. government's official web portal to all federal, state and local government web resources and services.